Content
SEND FEEDBACK

Daily
Averages
Monthly
Summary
United States of America

GARLAND, UTAH


Home > North America > United States > Utah
Elevation: 1372 meters     Latitude: 41 53N     Longitude: 112 09W

WEATHER
 
SELECT A DAY
Number of Records: 172,082;   Date Range: 1/5/95 - 12/19/14
 
SHARE

PRINT THIS DATA

[ ← Previous Day ]
WEATHER ALMANAC - 31 JANUARY, 2013
[ Next Day → ]
[ °F ]   °C
Weather ElementAverageHighLow
Temperature0.7 °C2.2 °C (1:51 pm)-0.6 °C (4:51 am)
Dewpoint-1.9 °C-1.1 °C (12:51 pm)-3.9 °C (4:51 am)
Humidity83.5 %92 % (7:51 pm)76 % (1:51 pm)
Barometer1027.1 hPa1028.4 hPa (9:51 am)1025.7 hPa (1:51 am)
Wind Speed4.3 km/h13 km/h (1:51 pm)
Weather ElementAverage
Visibility14.8 km
Wind DirectionENE (80.4 °)

Weather ElementTotal
Precipitation---
Heating Degree Days17.6 (Base 18.3)
Averaged from 23 records on 31 January, 2013
WEATHER CONDITIONS BREAKOUT
WIND DIRECTION BREAKOUT
WEATHER BY HOUR - 31 JANUARY, 2013
[ °F ]   °C
Local TimeTemperatureDewpointHumidityBarometerVisibilityWind DirectionWind SpeedGust SpeedPrecipitationEventsConditions
1:51 AM0.6 °C-1.7 °C85 %1025.7 hPa16.1 kmEast (100°)5.6 km/hOvercast
2:51 AM1.1 °C-1.7 °C82 %1026.1 hPa16.1 kmSW (220°)5.6 km/hOvercast
3:51 AM0 °C-2.8 °C82 %1026.1 hPa16.1 kmESE (110°)5.6 km/hMostly Cloudy
4:51 AM-0.6 °C-3.9 °C79 %1026.8 hPa16.1 kmEast (100°)5.6 km/hOvercast
5:51 AM0 °C-2.8 °C82 %1026.8 hPa16.1 kmCalmOvercast
6:51 AM0 °C-2.8 °C82 %1027.1 hPa16.1 kmCalmOvercast
7:51 AM0 °C-3.3 °C79 %1027.8 hPa16.1 kmCalmOvercast
8:51 AM-0.6 °C-2.8 °C85 %1028.1 hPa16.1 kmCalmOvercast
9:51 AM0 °C-2.2 °C85 %1028.4 hPa16.1 kmWSW (250°)5.6 km/hOvercast
10:51 AM1.1 °C-1.7 °C82 %1028.4 hPa16.1 kmEast (90°)5.6 km/hOvercast
11:51 AM1.1 °C-1.7 °C82 %1028.1 hPa16.1 kmCalmOvercast
12:51 PM1.7 °C-1.1 °C82 %1027.4 hPa16.1 kmNorth (10°)5.6 km/hOvercast
1:51 PM2.2 °C-1.7 °C76 %1026.8 hPa16.1 kmNorth (360°)13 km/hOvercast
2:51 PM2.2 °C-1.1 °C79 %1026.8 hPa14.5 kmNorth (10°)11.1 km/hOvercast
3:51 PM1.7 °C-1.7 °C78 %1027.1 hPa14.5 kmNorth (10°)11.1 km/hOvercast
4:51 PM1.1 °C-1.7 °C82 %1026.8 hPa12.9 kmNE (40°)5.6 km/hOvercast
5:51 PM1.1 °C-1.7 °C82 %1027.1 hPa14.5 kmNorth (350°)7.4 km/hOvercast
6:51 PM1.1 °C-1.1 °C85 %1026.8 hPa14.5 kmNE (50°)5.6 km/hOvercast
7:51 PM0 °C-1.1 °C92 %1027.1 hPa11.3 kmCalmOvercast
8:51 PM0.6 °C-1.1 °C89 %1027.1 hPa12.9 kmCalmOvercast
9:51 PM0.6 °C-1.1 °C89 %1026.8 hPa12.9 kmCalmOvercast
10:51 PM0.6 °C-1.1 °C89 %1026.1 hPa12.9 kmCalmOvercast
11:51 PM0 °C-1.1 °C92 %1026.4 hPa9.7 kmSSE (150°)7.4 km/hOvercast
Hourly data recorded from KLGU, located 0 kilometers away from Garland, Utah







STORIES FROM OUR PARTNERS